User: anonymous   Login
Location: Unspecified
(0.0000°N, 0.0000°E)
Time: 14:00:16
(UTC+00:00)
Language:

AO-73 - Orbit

View from above orbital plane
View from above orbital plane
View from above satellite
View from above satellite

Ground track
Ground track

The orbit data is extracted from the following two-line orbital elements,

1 39444U 13066AE  18050.66911763 +.00000258 +00000-0 +38288-4 0  9991
2 39444 097.6023 086.8778 0058579 174.4985 185.6886 14.81642082228256
Epoch (UTC): 19 February 2018 16:03:31
Eccentricity: 0.0058579
inclination: 97.6023°
perigee height: 583 km
apogee height: 665 km
right ascension of ascending node: 86.8778°
argument of perigee: 174.4985°
revolutions per day: 14.81642082
mean anomaly at epoch: 185.6886°
orbit number at epoch: 22825

The dashed part of the orbit path shows where the satellite is in the earth's shadow,  

DLR